Regional Weather Roundup
Issued by NWS

Home | Current Version | Previous Version | Graphics & Text | Print | Product List | Glossary On
Versions: 1 2 3 4 5 6 7 8 9 10 11 12 13 14 15 16 17 18 19 20 21 22 23 24 25 26 27 28 29 30 31 32 33 34 35 36 37 38 39 40 41 42 43 44 45 46 47 48 49 50
000
ASUS43 KLOT 030200
RWRIL

ILLINOIS REGIONAL WEATHER ROUNDUP
NATIONAL WEATHER SERVICE CHICAGO/ROMEOVILLE IL
900 PM CDT TUE SEP 02 2014

NOTE: "FAIR" INDICATES FEW OR NO CLOUDS BELOW 12,000 FEET WITH NO
SIGNIFICANT WEATHER AND/OR OBSTRUCTIONS TO VISIBILITY.

* THESE STATIONS ARE NOT UNDER NWS QUALITY CONTROL. THEY ALSO MAY NOT
  REPORT WEATHER SUCH AS PRECIPITATION OR FOG.

ILZ001-002-007-009-015-016-024-030300-
NORTHWEST ILLINOIS

CITY           SKY/WX    TMP DP  RH WIND       PRES   REMARKS
MOLINE         CLEAR     67  62  84 CALM      29.94R
STERLING*      CLEAR     66  61  82 CALM      29.94R
$$

ILZ003-004-008-010-011-017-018-030300-
NORTH CENTRAL ILLINOIS

CITY           SKY/WX    TMP DP  RH WIND       PRES   REMARKS
ROCKFORD       CLEAR     69  60  73 CALM      29.95R
$$

ILZ005-006-012>014-019>023-030300-
NORTHEAST ILLINOIS

CITY           SKY/WX    TMP DP  RH WIND       PRES   REMARKS
CHICAGO-OHARE  MOCLDY    73  58  59 NW5       29.92R
CHICAGO-MIDWAY PTCLDY    75  59  57 W5        29.92R
AURORA         PTCLDY    68  63  84 W3        29.94R
WAUKEGAN       CLEAR     65  61  87 CALM      29.92R
DUPAGE AIRPORT PTCLDY    71  61  70 W5        29.93R
WHEELING       CLEAR     75  60  59 W3        29.94R
NORTHERLY ISL    N/A     77  57  50 SW2         N/A
$$

LMZ740>746-030300-
SOUTHERN LAKE MICHIGAN

STATION/POSITION SKY/WX   TEMP    WIND        PRES    VSBY  WAVE
                          AIR SEA DIR/SP/G                  HT/PER
                          (F)     (DEG/KT/KT) (MB)    (MI)  (FT/S)
SOUTHERN BUOY              72 72  140/  6/  6 1012.3R         0
WAUKEGAN HARBOR            73     300/  3/  4   N/A
HARRISON CRIB              72     160/  7/  8   N/A
BURNHAM HARBOR             77     280/  6/  6   N/A
CALUMET HARBOR             74      CALM  /  2 1012.1R
MICHIGAN CITY              73     120/  3/  4   N/A
MICHIGAN CITY 6N           73 73  160/  4/  6   N/A           0
ST. JOSEPH                 73 74  160/  4/  6   N/A           0
$$

ILZ025>027-034>036-040-047-049-050-058-095>099-030300-
WEST-CENTRAL ILLINOIS

CITY           SKY/WX    TMP DP  RH WIND       PRES   REMARKS
QUINCY         PTCLDY    71  66  84 SW3       29.97R
MACOMB*        CLEAR     66  63  90 NW3       29.98R
$$

ILZ028>032-037-038-041>044-048-051>054-059>061-030300-
CENTRAL ILLINOIS

CITY           SKY/WX    TMP DP  RH WIND       PRES   REMARKS
DECATUR        PTCLDY    73  68  84 S3        29.97R
PEORIA         CLEAR     72  65  78 CALM      29.95R
SPRINGFIELD    CLEAR     71  67  87 SW5       29.96R
TAYLORVILLE    NOT AVBL
$$

ILZ033-039-045-046-055>057-062-063-030300-
EAST-CENTRAL ILLINOIS

CITY           SKY/WX    TMP DP  RH WIND       PRES   REMARKS
CHAMPAIGN      PTCLDY    69  67  93 S6        29.97R
MATTOON        PTCLDY    71  68  90 S6        29.98R
$$

ILZ079-100>102-030300-
SOUTHWEST ILLINOIS

CITY           SKY/WX    TMP DP  RH WIND       PRES   REMARKS
BELLEVILLE     CLEAR     70  70  99 CALM      29.99R
CAHOKIA*       CLEAR     71  68  90 S3        29.99R
$$

ILZ064>066-069>071-074>076-080>082-084>086-088>090-092>094-030300-
SOUTH-CENTRAL ILLINOIS

CITY           SKY/WX    TMP DP  RH WIND       PRES   REMARKS
CARBONDALE     PTCLDY    72  69  90 E3        29.99R
MT. VERNON     CLEAR     70  64  83 CALM      30.00R
$$

ILZ067-068-072-073-078-083-087-091-030300-
SOUTHEAST ILLINOIS

CITY           SKY/WX    TMP DP  RH WIND       PRES   REMARKS
LAWRENCEVILLE  CLEAR     70  69  97 CALM      29.98R
ROBINSON*      CLEAR     67  67  98 CALM      29.99R
$$

ABBREVIATIONS USED IN REMARKS
   TC - TEMPERATURE IN CELSIUS
  WCI - WIND CHILL INDEX
   HX - HEAT INDEX
  VSB - VISIBILITY
$$




USA.gov is the U.S. government's official web portal to all federal, state and local government web resources and services.